W2JV-2 Weather Reports


Display with metric or nautical units.
time (UTC)temp
F
wind
direction
speed
MPH
gust
MPH
rain 1hr
in
rain 24hr
in
rain mn
in
humidity
%
barometer
mb
20180924071005 61 353 0.0 1.0 0.00 0.00 0.00 91 1026.5
20180924070006 61 353 0.0 1.0 0.00 0.00 0.00 92 1026.5
20180924065005 61 6 0.0 0.0 0.00 0.00 0.00 92 1026.6
20180924064005 61 6 0.0 0.0 0.00 0.00 0.00 91 1026.5
20180924063006 61 6 0.0 0.0 0.00 0.00 0.00 91 1026.2
20180924062005 61 6 0.0 0.0 0.00 0.00 0.00 91 1026.4
20180924061005 61 6 0.0 0.0 0.00 0.00 0.00 90 1026.3
20180924060004 62 6 0.0 0.0 0.00 0.00 0.00 90 1026.4
20180924055005 62 6 0.0 0.0 0.00 0.00 0.00 89 1026.4
20180924054005 63 6 0.0 0.0 0.00 0.00 0.00 90 1026.3
20180924053006 63 6 0.0 0.0 0.00 0.00 0.00 90 1026.3
20180924052005 63 6 0.0 0.0 0.00 0.00 0.00 90 1026.3
20180924051005 63 6 0.0 0.0 0.00 0.00 0.00 90 1026.4
20180924050005 63 6 0.0 1.0 0.00 0.00 0.00 91 1026.4
20180924045005 63 6 0.0 0.0 0.00 0.00 0.00 89 1026.2
20180924044008 63 6 0.0 0.0 0.00 0.00 0.00 90 1026.5
20180924043005 63 6 0.0 0.0 0.00 0.00 0.00 90 1026.3
20180924042005 63 6 0.0 0.0 0.00 0.00 0.00 91 1026.4
20180924041005 63 6 0.0 0.0 0.00 0.00 0.00 91 1026.4
20180924040005 63 6 0.0 0.0 0.00 0.00 0.00 90 1026.4
20180924035005 63 6 0.0 0.0 0.00 0.00 0.00 91 1026.4
20180924034005 63 6 0.0 0.0 0.00 0.00 0.00 91 1026.2
20180924033005 63 6 0.0 0.0 0.00 0.00 0.00 91 1026.1
20180924032005 64 6 0.0 0.0 0.00 0.00 0.00 91 1026.2
20180924031007 63 6 0.0 0.0 0.00 0.00 0.00 91 1026.1
20180924030005 63 6 0.0 0.0 0.00 0.00 0.00 91 1026.1
20180924025007 63 6 0.0 0.0 0.00 0.00 0.00 91 1026.0
20180924024005 63 6 0.0 0.0 0.00 0.00 0.00 90 1026.0
20180924023005 63 6 0.0 0.0 0.00 0.00 0.00 90 1025.8
20180924022004 63 6 0.0 0.0 0.00 0.00 0.00 90 1025.8
20180924021005 63 6 0.0 0.0 0.00 0.00 0.00 90 1025.7
20180924020005 63 6 0.0 0.0 0.00 0.00 0.00 90 1025.6
20180924015004 63 6 0.0 0.0 0.00 0.00 0.00 90 1025.4
20180924014005 63 6 0.0 0.0 0.00 0.00 0.00 91 1025.3
20180924013005 63 6 0.0 0.0 0.00 0.00 0.00 91 1025.2
20180924012005 63 6 0.0 0.0 0.00 0.00 0.00 91 1025.2
20180924011005 63 6 0.0 0.0 0.00 0.00 0.00 90 1025.2
20180924010004 63 6 0.0 0.0 0.00 0.00 0.00 91 1025.0
20180924005005 64 6 0.0 0.0 0.00 0.00 0.00 92 1025.1
20180924004004 63 6 0.0 0.0 0.00 0.00 0.00 92 1025.0
20180924003004 63 6 0.0 0.0 0.00 0.00 0.00 90 1024.8
20180924002005 63 6 0.0 0.0 0.00 0.00 0.00 90 1024.7
20180924001009 63 6 0.0 0.0 0.00 0.00 0.00 90 1024.6
20180924000005 63 6 0.0 0.0 0.00 0.00 0.00 91 1024.5
20180923235005 64 6 0.0 0.0 0.00 0.00 0.00 90 1024.4
20180923234005 64 6 0.0 0.0 0.00 0.00 0.00 90 1024.3
20180923233007 64 6 0.0 0.0 0.00 0.00 0.00 90 1024.2
20180923232005 64 6 0.0 0.0 0.00 0.00 0.00 90 1024.1
20180923231005 64 6 0.0 0.0 0.00 0.00 0.00 89 1024.1
20180923230004 64 6 0.0 0.0 0.00 0.00 0.00 89 1024.1
20180923225005 64 6 0.0 0.0 0.00 0.00 0.00 89 1024.0
20180923224004 65 6 0.0 0.0 0.00 0.00 0.00 89 1024.0
20180923223005 65 6 0.0 0.0 0.00 0.00 0.00 88 1023.9
20180923222007 65 6 0.0 0.0 0.00 0.00 0.00 88 1024.1
20180923221005 65 6 0.0 0.0 0.00 0.00 0.00 87 1024.0
20180923220006 66 6 0.0 0.0 0.00 0.00 0.00 87 1024.0
20180923215004 66 6 0.0 0.0 0.00 0.00 0.00 88 1023.6
20180923214005 66 6 0.0 0.0 0.00 0.00 0.00 87 1023.6
20180923213004 66 6 0.0 0.0 0.00 0.00 0.00 86 1023.6
20180923212004 66 6 0.0 0.0 0.00 0.00 0.00 86 1023.6
20180923211004 66 6 0.0 0.0 0.00 0.00 0.00 87 1023.5
20180923210004 66 6 0.0 0.0 0.00 0.00 0.00 86 1023.4
20180923205005 66 6 0.0 0.0 0.00 0.00 0.00 85 1023.4
20180923204005 66 6 0.0 0.0 0.00 0.00 0.00 86 1023.4
20180923203006 66 6 0.0 0.0 0.00 0.00 0.00 85 1023.2
20180923202004 66 6 0.0 0.0 0.00 0.00 0.00 85 1023.3
20180923201004 66 6 0.0 0.0 0.00 0.00 0.00 84 1023.3
20180923200005 67 6 0.0 0.0 0.00 0.00 0.00 84 1023.2
20180923195005 66 8 0.0 0.0 0.00 0.00 0.00 85 1023.2
20180923194005 66 6 0.0 0.0 0.00 0.00 0.00 83 1023.3
20180923193005 66 6 0.0 2.0 0.00 0.00 0.00 84 1023.1
20180923192005 66 283 1.0 2.0 0.00 0.00 0.00 84 1023.1
20180923191004 66 331 0.0 0.0 0.00 0.00 0.00 83 1023.3
20180923190004 66 353 0.0 1.0 0.00 0.00 0.00 83 1023.4
20180923185004 66 351 0.0 0.0 0.00 0.00 0.00 84 1023.5
20180923184004 66 352 0.0 1.0 0.00 0.00 0.00 84 1023.4
20180923183005 67 347 0.0 0.0 0.00 0.00 0.00 81 1023.4
20180923182004 66 347 0.0 0.0 0.00 0.00 0.00 82 1023.4
20180923181004 66 344 0.0 0.0 0.00 0.00 0.00 81 1023.6
20180923180005 66 344 0.0 1.0 0.00 0.00 0.00 81 1023.6
20180923175005 66 126 0.0 3.0 0.00 0.00 0.00 82 1023.7
20180923174005 66 350 0.0 0.0 0.00 0.00 0.00 83 1023.8
20180923173005 66 351 0.0 1.0 0.00 0.00 0.00 81 1023.9
20180923172005 66 344 0.0 2.0 0.00 0.00 0.00 82 1024.0
20180923171005 66 20 0.0 2.0 0.00 0.00 0.00 82 1023.8
20180923170004 65 8 0.0 2.0 0.00 0.00 0.00 82 1023.9
20180923165004 65 185 0.0 2.0 0.00 0.00 0.00 82 1024.2
20180923164006 65 298 0.0 3.0 0.00 0.00 0.00 83 1024.4
20180923163005 65 175 0.0 2.0 0.00 0.00 0.00 85 1024.4
20180923162005 64 3 0.0 1.0 0.00 0.00 0.00 84 1024.5
20180923161005 64 319 0.0 0.0 0.00 0.00 0.00 85 1024.4
20180923160005 64 287 0.0 1.0 0.00 0.00 0.00 83 1024.3
20180923155005 64 251 0.0 3.0 0.00 0.00 0.00 82 1024.8
20180923154005 64 326 0.0 3.0 0.00 0.00 0.00 83 1024.7
20180923153007 64 227 0.0 2.0 0.00 0.00 0.00 83 1024.6
20180923152004 64 189 0.0 2.0 0.00 0.00 0.00 85 1024.5
20180923151005 63 145 0.0 2.0 0.00 0.00 0.00 86 1024.4
20180923150004 63 335 0.0 1.0 0.00 0.00 0.00 87 1024.6
20180923145004 63 258 0.0 1.0 0.00 0.00 0.00 86 1024.4
20180923144005 63 251 0.0 0.0 0.00 0.00 0.00 87 1024.9
20180923143005 63 251 0.0 0.0 0.00 0.00 0.00 85 1025.0
20180923142004 63 250 0.0 1.0 0.00 0.00 0.00 85 1024.5
20180923141004 63 250 0.0 0.0 0.00 0.00 0.00 86 1024.3
20180923140004 63 250 0.0 1.0 0.00 0.00 0.00 86 1024.1
20180923135005 63 274 0.0 1.0 0.00 0.00 0.00 85 1023.9
20180923134004 63 345 0.0 1.0 0.00 0.00 0.00 86 1024.0
20180923133005 62 330 0.0 3.0 0.00 0.00 0.00 85 1023.8
20180923132005 62 245 0.0 1.0 0.00 0.00 0.00 85 1023.9
20180923131004 62 267 0.0 0.0 0.00 0.00 0.00 85 1024.0
20180923130005 62 301 0.0 2.0 0.00 0.00 0.00 85 1024.0
20180923125006 62 133 0.0 0.0 0.00 0.00 0.00 85 1023.9
20180923124004 62 117 0.0 0.0 0.00 0.00 0.00 85 1023.7
20180923123004 62 117 0.0 0.0 0.00 0.00 0.00 85 1023.7
20180923122004 62 118 0.0 0.0 0.00 0.00 0.00 84 1023.6
20180923121004 62 118 0.0 0.0 0.00 0.00 0.00 84 1023.4
20180923120005 62 117 0.0 0.0 0.00 0.00 0.00 83 1023.4
20180923115005 62 120 0.0 1.0 0.00 0.00 0.00 84 1023.4
20180923114004 62 124 0.0 1.0 0.00 0.00 0.00 84 1023.3
20180923113006 62 122 0.0 0.0 0.00 0.00 0.00 82 1023.3
20180923112004 62 122 0.0 3.0 0.00 0.00 0.00 83 1023.2
20180923111004 62 337 0.0 1.0 0.00 0.00 0.00 82 1023.1
20180923110004 62 233 0.0 3.0 0.00 0.00 0.00 82 1023.1
20180923105006 62 65 0.0 2.0 0.00 0.00 0.00 82 1022.9
20180923104004 62 137 0.0 3.0 0.00 0.00 0.00 82 1022.7
20180923103004 62 2 0.0 2.0 0.00 0.00 0.00 82 1022.7
20180923102005 62 345 1.0 3.0 0.00 0.00 0.00 83 1023.0
20180923101005 62 335 0.0 1.0 0.00 0.00 0.00 83 1023.4
20180923100004 62 355 0.0 2.0 0.00 0.00 0.00 82 1023.5
20180923095005 62 79 0.0 2.0 0.00 0.00 0.00 83 1023.4
20180923094004 62 346 0.0 2.0 0.00 0.00 0.00 84 1023.4
20180923093008 62 213 0.0 2.0 0.00 0.00 0.00 83 1023.3
20180923092005 62 189 0.0 1.0 0.00 0.00 0.00 83 1023.0
20180923091004 62 214 0.0 2.0 0.00 0.00 0.00 83 1023.1
20180923090004 62 313 0.0 1.0 0.00 0.00 0.00 83 1023.1
20180923085004 62 313 0.0 2.0 0.00 0.00 0.00 83 1023.1
20180923084004 62 54 0.0 3.0 0.00 0.00 0.00 83 1023.0
20180923083004 62 185 0.0 2.0 0.00 0.00 0.00 83 1022.9
20180923082004 62 197 0.0 2.0 0.00 0.00 0.00 83 1022.8
20180923081004 62 285 0.0 3.0 0.00 0.00 0.00 84 1022.7
20180923080004 62 312 1.0 2.0 0.00 0.00 0.00 84 1022.4
20180923075005 62 308 0.0 1.0 0.00 0.00 0.00 83 1022.5
20180923074005 62 12 0.0 3.0 0.00 0.00 0.00 82 1022.4
20180923073005 62 42 0.0 2.0 0.00 0.00 0.00 81 1022.4
20180923072004 62 344 0.0 3.0 0.00 0.00 0.00 82 1022.4